Time,TemperatureF,DewpointF,PressureIn,WindDirection,WindDirectionDegrees,WindSpeedMPH,WindSpeedGustMPH,Humidity,HourlyPrecipIn,Conditions,Clouds,dailyrainin,SoftwareType,DateUTC
2013-03-13 00:00:00,53.2,51.8,30.14,West,265,0.0,1.0,95,0.01,,---,0.00,VWS V14.00,2013-03-13 07:00:00,
2013-03-13 00:01:00,53.2,51.8,30.14,West,265,0.0,1.0,95,0.01,,---,0.00,VWS V14.00,2013-03-13 07:01:00,
2013-03-13 00:30:00,53.8,52.4,30.13,ESE,105,1.0,2.0,95,0.00,,---,0.00,VWS V14.00,2013-03-13 07:30:00,
2013-03-13 00:31:00,53.8,52.4,30.13,ESE,105,1.0,2.0,95,0.00,,---,0.00,VWS V14.00,2013-03-13 07:31:00,
2013-03-13 01:00:00,53.3,51.9,30.13,East,98,0.0,2.0,95,0.00,,---,0.00,VWS V14.00,2013-03-13 08:00:00,
2013-03-13 01:01:00,53.3,51.9,30.13,East,98,0.0,2.0,95,0.00,,---,0.00,VWS V14.00,2013-03-13 08:01:00,
2013-03-13 01:30:00,52.9,51.8,30.13,East,98,0.0,1.0,96,0.00,,---,0.00,VWS V14.00,2013-03-13 08:30:00,
2013-03-13 01:31:00,52.9,51.8,30.13,East,98,0.0,1.0,96,0.00,,---,0.00,VWS V14.00,2013-03-13 08:31:00,
2013-03-13 02:00:00,52.4,51.3,30.13,East,98,0.0,1.0,96,0.00,,---,0.00,VWS V14.00,2013-03-13 09:00:00,
2013-03-13 02:01:00,52.4,51.3,30.13,East,98,0.0,1.0,96,0.00,,---,0.00,VWS V14.00,2013-03-13 09:01:00,
2013-03-13 02:30:00,52.3,51.2,30.12,East,98,0.0,0.0,96,0.00,,---,0.00,VWS V14.00,2013-03-13 09:30:00,
2013-03-13 03:00:00,52.2,51.1,30.11,East,98,0.0,1.0,96,0.00,,---,0.00,VWS V14.00,2013-03-13 10:00:00,
2013-03-13 03:01:00,52.2,51.1,30.11,East,98,0.0,1.0,96,0.00,,---,0.00,VWS V14.00,2013-03-13 10:01:00,
2013-03-13 03:30:00,51.4,50.3,30.10,SW,236,0.0,2.0,96,0.00,,---,0.00,VWS V14.00,2013-03-13 10:30:00,
2013-03-13 03:31:00,51.4,50.3,30.10,SW,236,0.0,2.0,96,0.00,,---,0.00,VWS V14.00,2013-03-13 10:31:00,
2013-03-13 04:00:00,50.7,49.6,30.10,SW,236,0.0,1.0,96,0.00,,---,0.00,VWS V14.00,2013-03-13 11:00:00,
2013-03-13 04:01:00,50.7,49.6,30.10,SW,236,0.0,1.0,96,0.00,,---,0.00,VWS V14.00,2013-03-13 11:01:00,
2013-03-13 04:30:00,49.9,48.8,30.10,WSW,240,0.0,3.0,96,0.00,,---,0.00,VWS V14.00,2013-03-13 11:30:00,
2013-03-13 04:31:00,49.9,48.8,30.10,WSW,240,0.0,3.0,96,0.00,,---,0.00,VWS V14.00,2013-03-13 11:31:00,
2013-03-13 05:00:00,49.9,48.8,30.11,WSW,251,0.0,3.0,96,0.00,,---,0.00,VWS V14.00,2013-03-13 12:00:00,
2013-03-13 05:01:00,49.9,48.8,30.11,WSW,251,0.0,3.0,96,0.00,,---,0.00,VWS V14.00,2013-03-13 12:01:00,
2013-03-13 05:30:00,49.3,48.2,30.11,WSW,252,0.0,3.0,96,0.00,,---,0.00,VWS V14.00,2013-03-13 12:30:00,
2013-03-13 05:31:00,49.3,48.2,30.11,WSW,252,0.0,3.0,96,0.00,,---,0.00,VWS V14.00,2013-03-13 12:31:00,
2013-03-13 06:00:00,48.4,47.3,30.11,WSW,252,0.0,1.0,96,0.00,,---,0.00,VWS V14.00,2013-03-13 13:00:00,
2013-03-13 06:01:00,48.4,47.3,30.11,WSW,252,0.0,1.0,96,0.00,,---,0.00,VWS V14.00,2013-03-13 13:01:00,
2013-03-13 06:30:00,47.9,46.8,30.11,WSW,252,0.0,0.0,96,0.00,,---,0.00,VWS V14.00,2013-03-13 13:30:00,
2013-03-13 06:31:00,47.9,46.8,30.11,WSW,252,0.0,0.0,96,0.00,,---,0.00,VWS V14.00,2013-03-13 13:31:00,
2013-03-13 07:00:00,48.0,46.9,30.13,WSW,252,0.0,0.0,96,0.00,,---,0.00,VWS V14.00,2013-03-13 14:00:00,
2013-03-13 07:01:00,48.0,46.9,30.13,WSW,252,0.0,0.0,96,0.00,,---,0.00,VWS V14.00,2013-03-13 14:01:00,
2013-03-13 07:30:00,48.1,47.0,30.12,WSW,252,0.0,0.0,96,0.00,,---,0.00,VWS V14.00,2013-03-13 14:30:00,
2013-03-13 07:31:00,48.1,47.0,30.12,WSW,252,0.0,0.0,96,0.00,,---,0.00,VWS V14.00,2013-03-13 14:31:00,
2013-03-13 08:00:00,49.2,48.4,30.14,WSW,252,0.0,1.0,97,0.00,,---,0.00,VWS V14.00,2013-03-13 15:00:00,
2013-03-13 08:01:00,49.2,48.4,30.14,WSW,252,0.0,1.0,97,0.00,,---,0.00,VWS V14.00,2013-03-13 15:01:00,
2013-03-13 08:30:00,50.6,49.8,30.15,WSW,252,0.0,1.0,97,0.00,,---,0.00,VWS V14.00,2013-03-13 15:30:00,
2013-03-13 08:31:00,50.6,49.8,30.15,WSW,252,0.0,1.0,97,0.00,,---,0.00,VWS V14.00,2013-03-13 15:31:00,
2013-03-13 09:00:00,50.8,50.0,30.16,WSW,252,2.0,3.0,97,0.00,,---,0.00,VWS V14.00,2013-03-13 16:00:00,
2013-03-13 09:01:00,50.8,50.0,30.16,WSW,252,2.0,3.0,97,0.00,,---,0.00,VWS V14.00,2013-03-13 16:01:00,
2013-03-13 09:30:00,51.5,50.7,30.16,WSW,252,1.0,3.0,97,0.00,,---,0.00,VWS V14.00,2013-03-13 16:30:00,
2013-03-13 09:31:00,51.5,50.7,30.16,WSW,252,1.0,3.0,97,0.00,,---,0.00,VWS V14.00,2013-03-13 16:31:00,
2013-03-13 10:00:00,52.2,51.4,30.17,WSW,252,0.0,2.0,97,0.00,,---,0.00,VWS V14.00,2013-03-13 17:00:00,
2013-03-13 10:01:00,52.2,51.4,30.17,WSW,252,0.0,2.0,97,0.00,,---,0.00,VWS V14.00,2013-03-13 17:01:00,
2013-03-13 10:30:00,52.6,51.8,30.17,West,260,1.0,4.0,97,0.00,,---,0.00,VWS V14.00,2013-03-13 17:30:00,
2013-03-13 10:31:00,52.6,51.8,30.17,West,260,1.0,4.0,97,0.00,,---,0.00,VWS V14.00,2013-03-13 17:31:00,
2013-03-13 11:00:00,53.1,52.0,30.17,West,266,1.0,4.0,96,0.00,,---,0.00,VWS V14.00,2013-03-13 18:00:00,
2013-03-13 11:01:00,53.1,52.0,30.17,West,266,1.0,4.0,96,0.00,,---,0.00,VWS V14.00,2013-03-13 18:01:00,
2013-03-13 11:30:00,53.2,52.1,30.16,West,267,3.0,5.0,96,0.00,,---,0.00,VWS V14.00,2013-03-13 18:30:00,
2013-03-13 11:31:00,53.2,52.1,30.16,West,267,3.0,5.0,96,0.00,,---,0.00,VWS V14.00,2013-03-13 18:31:00,
2013-03-13 12:00:00,54.1,53.0,30.16,West,271,4.0,7.0,96,0.00,,---,0.00,VWS V14.00,2013-03-13 19:00:00,
2013-03-13 12:01:00,54.1,53.0,30.16,West,271,4.0,7.0,96,0.00,,---,0.00,VWS V14.00,2013-03-13 19:01:00,
2013-03-13 12:30:00,54.9,53.5,30.15,West,279,1.0,7.0,95,0.00,,---,0.00,VWS V14.00,2013-03-13 19:30:00,
2013-03-13 12:31:00,54.9,53.5,30.15,West,279,1.0,7.0,95,0.00,,---,0.00,VWS V14.00,2013-03-13 19:31:00,
2013-03-13 13:00:00,55.8,53.8,30.14,West,273,3.0,6.0,93,0.00,,---,0.00,VWS V14.00,2013-03-13 20:00:00,
2013-03-13 13:01:00,55.8,53.8,30.14,West,273,3.0,6.0,93,0.00,,---,0.00,VWS V14.00,2013-03-13 20:01:00,
2013-03-13 13:30:00,56.3,54.0,30.12,West,270,3.0,6.0,92,0.00,,---,0.00,VWS V14.00,2013-03-13 20:30:00,
2013-03-13 13:31:00,56.3,54.0,30.12,West,270,3.0,6.0,92,0.00,,---,0.00,VWS V14.00,2013-03-13 20:31:00,
2013-03-13 14:00:00,56.8,54.5,30.11,West,274,2.0,6.0,92,0.00,,---,0.00,VWS V14.00,2013-03-13 21:00:00,
2013-03-13 14:01:00,56.8,54.5,30.11,West,274,2.0,6.0,92,0.00,,---,0.00,VWS V14.00,2013-03-13 21:01:00,
2013-03-13 14:30:00,56.5,53.9,30.10,West,272,3.0,6.0,91,0.00,,---,0.00,VWS V14.00,2013-03-13 21:30:00,
2013-03-13 14:31:00,56.5,53.9,30.10,West,272,3.0,6.0,91,0.00,,---,0.00,VWS V14.00,2013-03-13 21:31:00,
2013-03-13 15:00:00,56.6,54.3,30.09,West,280,1.0,6.0,92,0.00,,---,0.00,VWS V14.00,2013-03-13 22:00:00,
2013-03-13 15:01:00,56.6,54.3,30.09,West,280,1.0,6.0,92,0.00,,---,0.00,VWS V14.00,2013-03-13 22:01:00,
2013-03-13 15:30:00,56.0,53.7,30.09,West,279,4.0,8.0,92,0.00,,---,0.00,VWS V14.00,2013-03-13 22:30:00,
2013-03-13 15:31:00,56.0,53.7,30.09,West,279,4.0,8.0,92,0.00,,---,0.00,VWS V14.00,2013-03-13 22:31:00,
2013-03-13 16:00:00,56.0,53.7,30.08,NW,305,6.0,8.0,92,0.00,,---,0.00,VWS V14.00,2013-03-13 23:00:00,
2013-03-13 16:01:00,56.0,53.7,30.08,NW,305,6.0,8.0,92,0.00,,---,0.00,VWS V14.00,2013-03-13 23:01:00,
2013-03-13 16:30:00,55.3,53.3,30.08,WNW,282,3.0,8.0,93,0.00,,---,0.00,VWS V14.00,2013-03-13 23:30:00,
2013-03-13 16:31:00,55.3,53.3,30.08,WNW,282,3.0,8.0,93,0.00,,---,0.00,VWS V14.00,2013-03-13 23:31:00,
2013-03-13 17:00:00,54.9,52.9,30.08,West,277,2.0,10.0,93,0.00,,---,0.00,VWS V14.00,2013-03-14 00:00:00,
2013-03-13 17:01:00,54.9,52.9,30.08,West,277,2.0,10.0,93,0.00,,---,0.00,VWS V14.00,2013-03-14 00:01:00,
2013-03-13 17:30:00,55.0,53.3,30.08,West,265,3.0,7.0,94,0.00,,---,0.00,VWS V14.00,2013-03-14 00:30:00,
2013-03-13 17:31:00,55.0,53.3,30.08,West,265,3.0,7.0,94,0.00,,---,0.00,VWS V14.00,2013-03-14 00:31:00,
2013-03-13 18:00:00,54.9,53.2,30.08,West,272,0.0,7.0,94,0.00,,---,0.00,VWS V14.00,2013-03-14 01:00:00,
2013-03-13 18:01:00,54.9,53.2,30.08,West,272,0.0,7.0,94,0.00,,---,0.00,VWS V14.00,2013-03-14 01:01:00,
2013-03-13 18:30:00,54.5,52.5,30.08,West,272,0.0,2.0,93,0.00,,---,0.00,VWS V14.00,2013-03-14 01:30:00,
2013-03-13 18:31:00,54.5,52.5,30.08,West,272,0.0,2.0,93,0.00,,---,0.00,VWS V14.00,2013-03-14 01:31:00,
2013-03-13 19:00:00,53.5,51.8,30.09,West,272,0.0,1.0,94,0.00,,---,0.00,VWS V14.00,2013-03-14 02:00:00,
2013-03-13 19:01:00,53.5,51.8,30.09,West,272,0.0,1.0,94,0.00,,---,0.00,VWS V14.00,2013-03-14 02:01:00,
2013-03-13 19:30:00,53.7,52.3,30.10,West,272,0.0,1.0,95,0.00,,---,0.00,VWS V14.00,2013-03-14 02:30:00,
2013-03-13 19:31:00,53.7,52.3,30.10,West,272,0.0,1.0,95,0.00,,---,0.00,VWS V14.00,2013-03-14 02:31:00,
2013-03-13 20:00:00,53.5,52.1,30.11,West,272,0.0,1.0,95,0.00,,---,0.00,VWS V14.00,2013-03-14 03:00:00,
2013-03-13 20:01:00,53.5,52.1,30.11,West,272,0.0,1.0,95,0.00,,---,0.00,VWS V14.00,2013-03-14 03:01:00,
2013-03-13 20:30:00,53.1,51.7,30.12,West,272,0.0,1.0,95,0.00,,---,0.00,VWS V14.00,2013-03-14 03:30:00,
2013-03-13 20:31:00,53.1,51.7,30.12,West,272,0.0,1.0,95,0.00,,---,0.00,VWS V14.00,2013-03-14 03:31:00,
2013-03-13 21:00:00,53.4,52.3,30.12,West,272,0.0,1.0,96,0.00,,---,0.00,VWS V14.00,2013-03-14 04:00:00,
2013-03-13 21:01:00,53.4,52.3,30.12,West,272,0.0,1.0,96,0.00,,---,0.00,VWS V14.00,2013-03-14 04:01:00,
2013-03-13 21:30:00,52.9,51.8,30.12,West,272,1.0,2.0,96,0.00,,---,0.00,VWS V14.00,2013-03-14 04:30:00,
2013-03-13 21:31:00,52.9,51.8,30.12,West,272,1.0,2.0,96,0.00,,---,0.00,VWS V14.00,2013-03-14 04:31:00,
2013-03-13 22:00:00,52.6,51.5,30.13,West,269,0.0,1.0,96,0.00,,---,0.00,VWS V14.00,2013-03-14 05:00:00,
2013-03-13 22:01:00,52.6,51.5,30.13,West,269,0.0,1.0,96,0.00,,---,0.00,VWS V14.00,2013-03-14 05:01:00,
2013-03-13 22:30:00,51.7,50.6,30.14,WSW,255,0.0,3.0,96,0.00,,---,0.00,VWS V14.00,2013-03-14 05:30:00,
2013-03-13 22:31:00,51.7,50.6,30.14,WSW,255,0.0,3.0,96,0.00,,---,0.00,VWS V14.00,2013-03-14 05:31:00,
2013-03-13 23:00:00,52.4,51.6,30.14,West,263,0.0,2.0,97,0.00,,---,0.00,VWS V14.00,2013-03-14 06:00:00,
2013-03-13 23:01:00,52.4,51.6,30.14,West,263,0.0,2.0,97,0.00,,---,0.00,VWS V14.00,2013-03-14 06:01:00,
2013-03-13 23:30:00,52.5,51.7,30.14,West,263,0.0,2.0,97,0.00,,---,0.00,VWS V14.00,2013-03-14 06:30:00,
2013-03-13 23:31:00,52.5,51.7,30.14,West,263,0.0,2.0,97,0.00,,---,0.00,VWS V14.00,2013-03-14 06:31:00,